BCS2MA EDDF-EGLL

Flight info

Callsign BCS2MA
Flight time 1h 8m
Altitude 34000
Route SOBRA2L/18 SOBRA Y180 BITBU Y181 DEMUL M624 BUB L608 SASKI DCT XAMAN L980 LOGAN
Aircraft A306/H-SDE3FGHIRWY/LB1

Departure

Time 2026-05-05 11:31
Airport Frankfurt Main Airport (EDDF)

Arrival

Time 2026-05-05 12:39
Airport London Heathrow Airport (EGLL)
Time Latitude Longitude Altitude Speed Heading
2026-05-05 10:56 50.03748 8.53228 349 ft 0 kts 339°
2026-05-05 11:22 50.03735 8.53236 358 ft 4 kts 339°
2026-05-05 11:22 50.03717 8.53246 358 ft 4 kts 339°
2026-05-05 11:22 50.03694 8.53260 358 ft 4 kts 339°
2026-05-05 11:22 50.03674 8.53273 358 ft 4 kts 315°
2026-05-05 11:23 50.03666 8.53301 356 ft 4 kts 261°
2026-05-05 11:23 50.03671 8.53330 347 ft 0 kts 250°
2026-05-05 11:26 50.03664 8.53303 367 ft 7 kts 250°
2026-05-05 11:26 50.03639 8.53196 352 ft 14 kts 250°
2026-05-05 11:27 50.03598 8.53022 351 ft 19 kts 250°
2026-05-05 11:27 50.03553 8.52834 347 ft 19 kts 250°
2026-05-05 11:27 50.03510 8.52644 350 ft 18 kts 260°
2026-05-05 11:27 50.03498 8.52458 351 ft 16 kts 249°
2026-05-05 11:28 50.03466 8.52330 353 ft 7 kts 245°
2026-05-05 11:28 50.03428 8.52304 336 ft 8 kts 178°
2026-05-05 11:28 50.03398 8.52360 337 ft 7 kts 99°
2026-05-05 11:28 50.03398 8.52430 338 ft 6 kts 90°
2026-05-05 11:29 50.03398 8.52440 338 ft 0 kts 90°
2026-05-05 11:29 50.03398 8.52455 338 ft 5 kts 90°
2026-05-05 11:29 50.03398 8.52539 347 ft 10 kts 91°
2026-05-05 11:30 50.03356 8.52593 344 ft 8 kts 176°
2026-05-05 11:30 50.03349 8.52593 343 ft 0 kts 178°
2026-05-05 11:30 50.03276 8.52596 351 ft 42 kts 179°
2026-05-05 11:30 50.02707 8.52600 349 ft 118 kts 179°
2026-05-05 11:31 50.01671 8.52610 350 ft 178 kts 180°
2026-05-05 11:31 50.00413 8.52675 1167 ft 179 kts 176°
2026-05-05 11:31 49.99165 8.52793 2226 ft 182 kts 178°
2026-05-05 11:31 49.97861 8.52843 3102 ft 193 kts 179°
2026-05-05 11:32 49.96445 8.52892 3725 ft 213 kts 179°
2026-05-05 11:32 49.94908 8.52969 4043 ft 228 kts 178°
2026-05-05 11:32 49.93287 8.53071 4756 ft 235 kts 178°
2026-05-05 11:32 49.91663 8.53184 5822 ft 232 kts 178°
2026-05-05 11:33 49.90073 8.53300 6818 ft 232 kts 178°
2026-05-05 11:33 49.88448 8.53415 7785 ft 235 kts 179°
2026-05-05 11:33 49.86818 8.53151 8748 ft 240 kts 193°
2026-05-05 11:33 49.85156 8.52339 9272 ft 262 kts 199°
2026-05-05 11:34 49.83392 8.51324 9996 ft 277 kts 200°
2026-05-05 11:34 49.81520 8.50238 10559 ft 299 kts 200°
2026-05-05 11:34 49.79504 8.49043 10931 ft 322 kts 203°
2026-05-05 11:34 49.77574 8.47082 11269 ft 346 kts 223°
2026-05-05 11:35 49.76241 8.43882 11636 ft 367 kts 248°
2026-05-05 11:35 49.75842 8.39930 12244 ft 380 kts 270°
2026-05-05 11:35 49.76379 8.35897 12965 ft 388 kts 285°
2026-05-05 11:35 49.77199 8.31896 13665 ft 393 kts 286°
2026-05-05 11:36 49.77988 8.27829 14319 ft 397 kts 284°
2026-05-05 11:36 49.78730 8.23697 14971 ft 401 kts 283°
2026-05-05 11:36 49.79444 8.19502 15642 ft 405 kts 282°
2026-05-05 11:36 49.80144 8.15255 16317 ft 409 kts 282°
2026-05-05 11:37 49.80839 8.10957 16939 ft 414 kts 282°
2026-05-05 11:37 49.81534 8.06617 17593 ft 417 kts 282°
2026-05-05 11:37 49.82230 8.02230 18215 ft 421 kts 282°
2026-05-05 11:37 49.82929 7.97802 18734 ft 425 kts 281°
2026-05-05 11:38 49.83630 7.93340 19252 ft 428 kts 281°
2026-05-05 11:38 49.84335 7.88844 19764 ft 431 kts 281°
2026-05-05 11:38 49.85043 7.84317 20265 ft 434 kts 281°
2026-05-05 11:38 49.85754 7.79750 20756 ft 437 kts 281°
2026-05-05 11:39 49.86474 7.75152 21225 ft 440 kts 281°
2026-05-05 11:39 49.87201 7.70528 21722 ft 444 kts 282°
2026-05-05 11:39 49.87932 7.65849 22112 ft 449 kts 282°
2026-05-05 11:39 49.88664 7.61131 22573 ft 451 kts 281°
2026-05-05 11:40 49.89397 7.56381 23013 ft 454 kts 281°
2026-05-05 11:40 49.90131 7.51602 23417 ft 457 kts 281°
2026-05-05 11:40 49.90866 7.46796 23769 ft 459 kts 281°
2026-05-05 11:40 49.91604 7.41962 24147 ft 461 kts 281°
2026-05-05 11:41 49.92342 7.37112 24522 ft 463 kts 281°
2026-05-05 11:41 49.93070 7.32312 24865 ft 464 kts 281°
2026-05-05 11:41 49.93810 7.27421 25215 ft 466 kts 280°
2026-05-05 11:41 49.94551 7.22512 25531 ft 468 kts 280°
2026-05-05 11:42 49.95293 7.17587 25845 ft 470 kts 280°
2026-05-05 11:42 49.96035 7.12644 26162 ft 471 kts 280°
2026-05-05 11:42 49.96778 7.07681 26472 ft 472 kts 279°
2026-05-05 11:42 49.97656 7.02746 26747 ft 477 kts 285°
2026-05-05 11:43 49.98926 6.97966 27051 ft 480 kts 291°
2026-05-05 11:43 50.00367 6.93314 27591 ft 476 kts 293°
2026-05-05 11:43 50.01882 6.88754 28045 ft 474 kts 294°
2026-05-05 11:43 50.03434 6.84225 28455 ft 474 kts 295°
2026-05-05 11:44 50.04990 6.79718 28860 ft 472 kts 295°
2026-05-05 11:44 50.06537 6.75217 29316 ft 471 kts 294°
2026-05-05 11:44 50.08070 6.70721 29772 ft 469 kts 294°
2026-05-05 11:44 50.09586 6.66240 30175 ft 467 kts 294°
2026-05-05 11:45 50.11093 6.61758 30548 ft 466 kts 293°
2026-05-05 11:45 50.12588 6.57287 30936 ft 464 kts 293°
2026-05-05 11:45 50.14076 6.52829 31284 ft 463 kts 293°
2026-05-05 11:45 50.15560 6.48371 31626 ft 463 kts 292°
2026-05-05 11:46 50.17041 6.43917 31987 ft 462 kts 292°
2026-05-05 11:46 50.18518 6.39468 32350 ft 462 kts 292°
2026-05-05 11:46 50.19993 6.35018 32695 ft 461 kts 292°
2026-05-05 11:46 50.21444 6.30633 33079 ft 460 kts 292°
2026-05-05 11:47 50.22911 6.26197 33472 ft 459 kts 292°
2026-05-05 11:47 50.24371 6.21772 33787 ft 459 kts 291°
2026-05-05 11:47 50.25827 6.17352 33842 ft 454 kts 291°
2026-05-05 11:48 50.30094 6.04371 33831 ft 444 kts 291°
2026-05-05 11:48 50.32900 5.95771 33842 ft 444 kts 291°
2026-05-05 11:49 50.35704 5.87151 33849 ft 444 kts 291°
2026-05-05 11:49 50.38505 5.78519 33857 ft 444 kts 291°
2026-05-05 11:50 50.41298 5.69881 33859 ft 444 kts 291°
2026-05-05 11:50 50.44087 5.61225 33864 ft 445 kts 291°
2026-05-05 11:51 50.46876 5.52542 33872 ft 446 kts 291°
2026-05-05 11:51 50.49674 5.43793 33871 ft 450 kts 291°
2026-05-05 11:52 50.52004 5.36488 33880 ft 450 kts 291°
2026-05-05 11:52 50.54801 5.27696 33879 ft 448 kts 291°
2026-05-05 11:53 50.57584 5.18918 33884 ft 447 kts 291°
2026-05-05 11:53 50.60327 5.10227 33895 ft 447 kts 291°
2026-05-05 11:54 50.63087 5.01453 33891 ft 448 kts 291°
2026-05-05 11:54 50.66031 4.92781 33892 ft 453 kts 299°
2026-05-05 11:55 50.70188 4.85195 33896 ft 460 kts 309°
2026-05-05 11:55 50.74724 4.78043 33896 ft 461 kts 311°
2026-05-05 11:56 50.79312 4.70961 33901 ft 461 kts 310°
2026-05-05 11:56 50.83870 4.63867 33918 ft 460 kts 310°
2026-05-05 11:57 50.88413 4.56714 33910 ft 460 kts 309°
2026-05-05 11:57 50.92196 4.48703 33911 ft 452 kts 297°
2026-05-05 11:58 50.95521 4.40252 33914 ft 451 kts 296°
2026-05-05 11:58 50.98736 4.31783 33912 ft 451 kts 295°
2026-05-05 11:59 51.01965 4.23255 33914 ft 451 kts 296°
2026-05-05 11:59 51.05206 4.14714 33919 ft 451 kts 296°
2026-05-05 12:00 51.08442 4.06181 33927 ft 451 kts 295°
2026-05-05 12:00 51.11676 3.97626 33922 ft 451 kts 295°
2026-05-05 12:01 51.14902 3.89066 33915 ft 451 kts 295°
2026-05-05 12:01 51.18125 3.80483 33911 ft 451 kts 295°
2026-05-05 12:02 51.21345 3.71873 33916 ft 453 kts 296°
2026-05-05 12:02 51.24567 3.63231 33905 ft 453 kts 296°
2026-05-05 12:03 51.27785 3.54570 33921 ft 453 kts 296°
2026-05-05 12:03 51.30990 3.45916 33917 ft 451 kts 296°
2026-05-05 12:04 51.34150 3.37252 33924 ft 449 kts 292°
2026-05-05 12:04 51.36582 3.28148 33933 ft 443 kts 288°
2026-05-05 12:05 51.38785 3.18957 33921 ft 442 kts 287°
2026-05-05 12:05 51.40935 3.09757 33925 ft 442 kts 287°
2026-05-05 12:06 51.43093 3.00523 33949 ft 442 kts 287°
2026-05-05 12:06 51.45238 2.91359 33951 ft 442 kts 287°
2026-05-05 12:07 51.47391 2.82133 33937 ft 441 kts 288°
2026-05-05 12:07 51.49527 2.72948 33939 ft 439 kts 287°
2026-05-05 12:08 51.51653 2.63759 33947 ft 439 kts 287°
2026-05-05 12:08 51.53985 2.54691 33946 ft 442 kts 296°
2026-05-05 12:09 51.57772 2.46866 33830 ft 446 kts 314°
2026-05-05 12:09 51.60154 2.43680 33110 ft 445 kts 319°
2026-05-05 12:09 51.62620 2.40693 32325 ft 443 kts 321°
2026-05-05 12:10 51.65117 2.37815 31652 ft 440 kts 322°
2026-05-05 12:10 51.67610 2.34988 30966 ft 436 kts 322°
2026-05-05 12:10 51.70080 2.32175 30303 ft 433 kts 321°
2026-05-05 12:10 51.72366 2.29082 29498 ft 424 kts 313°
2026-05-05 12:11 51.74288 2.25549 28385 ft 415 kts 303°
2026-05-05 12:11 51.75754 2.21597 27289 ft 407 kts 293°
2026-05-05 12:11 51.76719 2.17357 26265 ft 399 kts 282°
2026-05-05 12:11 51.77131 2.12965 25513 ft 396 kts 270°
2026-05-05 12:12 51.77051 2.08538 25096 ft 392 kts 264°
2026-05-05 12:12 51.76844 2.04168 24975 ft 390 kts 263°
2026-05-05 12:12 51.76619 1.99723 24974 ft 405 kts 263°
2026-05-05 12:12 51.76395 1.95131 24971 ft 415 kts 264°
2026-05-05 12:13 51.76175 1.90476 24972 ft 417 kts 264°
2026-05-05 12:13 51.75956 1.85806 24969 ft 417 kts 264°
2026-05-05 12:13 51.75733 1.81133 24969 ft 417 kts 263°
2026-05-05 12:13 51.75509 1.76470 24969 ft 417 kts 264°
2026-05-05 12:14 51.75283 1.71800 24974 ft 417 kts 263°
2026-05-05 12:14 51.75054 1.67131 24975 ft 417 kts 263°
2026-05-05 12:14 51.74823 1.62468 24975 ft 417 kts 263°
2026-05-05 12:14 51.74552 1.57808 24974 ft 417 kts 263°
2026-05-05 12:15 51.74256 1.53157 24974 ft 417 kts 262°
2026-05-05 12:15 51.73956 1.48507 24974 ft 417 kts 262°
2026-05-05 12:15 51.73654 1.43844 24897 ft 421 kts 262°
2026-05-05 12:15 51.73348 1.39150 24232 ft 417 kts 263°
2026-05-05 12:16 51.73046 1.34517 23119 ft 414 kts 262°
2026-05-05 12:16 51.72742 1.29893 22208 ft 413 kts 262°
2026-05-05 12:16 51.72443 1.25358 21428 ft 408 kts 262°
2026-05-05 12:16 51.72142 1.20841 20758 ft 403 kts 263°
2026-05-05 12:17 51.71844 1.16379 20103 ft 398 kts 263°
2026-05-05 12:17 51.71546 1.11955 19417 ft 395 kts 263°
2026-05-05 12:17 51.71250 1.07574 18749 ft 392 kts 263°
2026-05-05 12:17 51.70952 1.03189 18073 ft 389 kts 263°
2026-05-05 12:18 51.70657 0.98886 17358 ft 385 kts 263°
2026-05-05 12:18 51.70364 0.94625 16680 ft 379 kts 264°
2026-05-05 12:18 51.70074 0.90428 16014 ft 375 kts 264°
2026-05-05 12:18 51.69784 0.86267 15298 ft 372 kts 264°
2026-05-05 12:19 51.69495 0.82133 14626 ft 369 kts 264°
2026-05-05 12:19 51.69212 0.78097 14160 ft 366 kts 264°
2026-05-05 12:19 51.68925 0.74028 13987 ft 366 kts 264°
2026-05-05 12:19 51.68636 0.69955 13967 ft 365 kts 264°
2026-05-05 12:20 51.68354 0.66005 13959 ft 348 kts 264°
2026-05-05 12:20 51.68081 0.62195 13957 ft 333 kts 264°
2026-05-05 12:20 51.67821 0.58587 13957 ft 316 kts 264°
2026-05-05 12:20 51.67568 0.55102 13962 ft 312 kts 264°
2026-05-05 12:21 51.67317 0.51631 13966 ft 312 kts 264°
2026-05-05 12:21 51.67065 0.48159 13967 ft 313 kts 264°
2026-05-05 12:21 51.66810 0.44681 13786 ft 312 kts 264°
2026-05-05 12:21 51.66555 0.41213 13326 ft 310 kts 264°
2026-05-05 12:22 51.66303 0.37789 12802 ft 305 kts 264°
2026-05-05 12:22 51.66052 0.34416 12174 ft 302 kts 264°
2026-05-05 12:22 51.65803 0.31068 11562 ft 299 kts 264°
2026-05-05 12:22 51.65556 0.27756 10960 ft 296 kts 264°
2026-05-05 12:23 51.65310 0.24482 10381 ft 293 kts 264°
2026-05-05 12:23 51.65065 0.21237 9793 ft 290 kts 263°
2026-05-05 12:23 51.64837 0.18022 9225 ft 287 kts 265°
2026-05-05 12:23 51.64664 0.14817 8996 ft 288 kts 266°
2026-05-05 12:24 51.64504 0.11603 8966 ft 287 kts 266°
2026-05-05 12:24 51.64343 0.08392 8966 ft 288 kts 266°
2026-05-05 12:24 51.64178 0.05187 8968 ft 288 kts 266°
2026-05-05 12:24 51.64012 0.01979 8966 ft 287 kts 266°
2026-05-05 12:25 51.63843 -0.01229 8987 ft 287 kts 266°
2026-05-05 12:25 51.63674 -0.04427 8986 ft 287 kts 266°
2026-05-05 12:25 51.63504 -0.07620 8696 ft 287 kts 265°
2026-05-05 12:25 51.63336 -0.10816 8222 ft 285 kts 266°
2026-05-05 12:26 51.63176 -0.13937 7993 ft 272 kts 266°
2026-05-05 12:26 51.63019 -0.16862 7984 ft 255 kts 265°
2026-05-05 12:26 51.62868 -0.19677 7989 ft 251 kts 265°
2026-05-05 12:26 51.62716 -0.22468 7993 ft 251 kts 266°
2026-05-05 12:27 51.62558 -0.25262 7991 ft 251 kts 266°
2026-05-05 12:27 51.62403 -0.28060 7995 ft 251 kts 265°
2026-05-05 12:27 51.62254 -0.30846 7992 ft 250 kts 266°
2026-05-05 12:27 51.62100 -0.33638 7967 ft 251 kts 265°
2026-05-05 12:28 51.61953 -0.36429 7964 ft 250 kts 266°
2026-05-05 12:28 51.61804 -0.39215 7962 ft 250 kts 265°
2026-05-05 12:28 51.61653 -0.42000 7967 ft 250 kts 266°
2026-05-05 12:28 51.61498 -0.44793 7970 ft 250 kts 265°
2026-05-05 12:29 51.61345 -0.47580 7964 ft 250 kts 265°
2026-05-05 12:29 51.61187 -0.50370 7965 ft 251 kts 266°
2026-05-05 12:29 51.61027 -0.53168 7968 ft 251 kts 265°
2026-05-05 12:29 51.60874 -0.55960 7967 ft 250 kts 266°
2026-05-05 12:30 51.60719 -0.58745 7965 ft 250 kts 266°
2026-05-05 12:30 51.60565 -0.61533 7968 ft 250 kts 265°
2026-05-05 12:30 51.60418 -0.64312 7965 ft 250 kts 266°
2026-05-05 12:30 51.60266 -0.67099 7681 ft 250 kts 266°
2026-05-05 12:31 51.60102 -0.69887 7344 ft 250 kts 262°
2026-05-05 12:31 51.59626 -0.72558 7042 ft 249 kts 248°
2026-05-05 12:31 51.58925 -0.75111 6734 ft 249 kts 246°
2026-05-05 12:31 51.58207 -0.77631 6424 ft 246 kts 245°
2026-05-05 12:32 51.57498 -0.80132 5986 ft 246 kts 246°
2026-05-05 12:32 51.56788 -0.82632 5549 ft 246 kts 245°
2026-05-05 12:32 51.56077 -0.85116 5206 ft 242 kts 245°
2026-05-05 12:32 51.55135 -0.87272 5045 ft 232 kts 219°
2026-05-05 12:33 51.53746 -0.88306 4870 ft 213 kts 189°
2026-05-05 12:33 51.52304 -0.88432 4366 ft 204 kts 165°
2026-05-05 12:33 51.51131 -0.87359 4055 ft 191 kts 130°
2026-05-05 12:33 51.50314 -0.85695 3999 ft 189 kts 122°
2026-05-05 12:34 51.49570 -0.83952 3999 ft 189 kts 120°
2026-05-05 12:34 51.48769 -0.82264 4007 ft 190 kts 125°
2026-05-05 12:34 51.47999 -0.80557 3993 ft 188 kts 115°
2026-05-05 12:34 51.47610 -0.78580 3870 ft 185 kts 95°
2026-05-05 12:35 51.47559 -0.76540 3607 ft 182 kts 87°
2026-05-05 12:35 51.47570 -0.74513 3332 ft 181 kts 85°
2026-05-05 12:35 51.47579 -0.72487 3070 ft 182 kts 85°
2026-05-05 12:35 51.47590 -0.70492 2820 ft 179 kts 86°
2026-05-05 12:36 51.47601 -0.68534 2579 ft 168 kts 86°
2026-05-05 12:36 51.47612 -0.66727 2374 ft 160 kts 86°
2026-05-05 12:36 51.47625 -0.64949 2142 ft 159 kts 85°
2026-05-05 12:36 51.47637 -0.63174 1921 ft 160 kts 84°
2026-05-05 12:37 51.47649 -0.61399 1706 ft 156 kts 87°
2026-05-05 12:37 51.47658 -0.59689 1486 ft 152 kts 85°
2026-05-05 12:37 51.47677 -0.58001 1228 ft 150 kts 83°
2026-05-05 12:37 51.47689 -0.56880 1130 ft 150 kts 84°
2026-05-05 12:38 51.47699 -0.55222 930 ft 146 kts 83°
2026-05-05 12:38 51.47724 -0.53584 759 ft 150 kts 85°
2026-05-05 12:38 51.47733 -0.51912 568 ft 148 kts 87°
2026-05-05 12:38 51.47737 -0.50258 348 ft 147 kts 87°
2026-05-05 12:39 51.47752 -0.48607 160 ft 151 kts 89°
2026-05-05 12:39 51.47757 -0.47035 100 ft 125 kts 90°
2026-05-05 12:39 51.47759 -0.45890 92 ft 79 kts 90°
2026-05-05 12:39 51.47760 -0.45274 97 ft 22 kts 92°
2026-05-05 12:40 51.47667 -0.45177 98 ft 17 kts 179°
2026-05-05 12:40 51.47628 -0.45177 96 ft 1 kts 180°
2026-05-05 12:40 51.47621 -0.45176 95 ft 2 kts 174°
2026-05-05 12:40 51.47600 -0.45128 97 ft 9 kts 101°
2026-05-05 12:41 51.47599 -0.45107 96 ft 0 kts 89°
2026-05-05 12:42 51.47599 -0.45093 98 ft 5 kts 89°
2026-05-05 12:42 51.47600 -0.44985 95 ft 14 kts 89°
2026-05-05 12:42 51.47602 -0.44801 96 ft 17 kts 89°
2026-05-05 12:42 51.47602 -0.44604 95 ft 18 kts 90°
2026-05-05 12:43 51.47601 -0.44397 94 ft 18 kts 90°
2026-05-05 12:43 51.47594 -0.44199 95 ft 17 kts 93°
2026-05-05 12:43 51.47561 -0.44066 95 ft 7 kts 153°
2026-05-05 12:43 51.47539 -0.44062 91 ft 3 kts 179°
2026-05-05 12:44 51.47513 -0.44061 93 ft 4 kts 179°
2026-05-05 12:44 51.47474 -0.44060 94 ft 8 kts 179°
2026-05-05 12:44 51.47407 -0.44060 94 ft 12 kts 179°
2026-05-05 12:44 51.47313 -0.44059 94 ft 15 kts 180°
2026-05-05 12:45 51.47204 -0.44059 94 ft 16 kts 180°
2026-05-05 12:45 51.47082 -0.44059 94 ft 19 kts 180°
2026-05-05 12:45 51.46946 -0.44057 94 ft 20 kts 179°
2026-05-05 12:45 51.46808 -0.44056 94 ft 20 kts 180°
2026-05-05 12:46 51.46667 -0.44056 90 ft 19 kts 179°
2026-05-05 12:46 51.46622 -0.44055 89 ft 0 kts 179°
2026-05-05 12:47 51.46564 -0.44055 89 ft 15 kts 180°
2026-05-05 12:47 51.46450 -0.44077 92 ft 16 kts 207°
2026-05-05 12:47 51.46360 -0.44161 93 ft 13 kts 211°
2026-05-05 12:48 51.46329 -0.44282 96 ft 12 kts 267°
2026-05-05 12:48 51.46327 -0.44416 95 ft 12 kts 269°
2026-05-05 12:48 51.46326 -0.44523 95 ft 7 kts 269°
2026-05-05 12:48 51.46325 -0.44600 93 ft 7 kts 269°
2026-05-05 12:49 51.46320 -0.44687 93 ft 11 kts 263°
2026-05-05 12:49 51.46319 -0.44824 95 ft 14 kts 270°
2026-05-05 12:49 51.46318 -0.44997 96 ft 17 kts 269°
2026-05-05 12:49 51.46318 -0.45201 95 ft 20 kts 270°
2026-05-05 12:50 51.46318 -0.45430 95 ft 21 kts 269°
2026-05-05 12:50 51.46321 -0.45657 95 ft 20 kts 278°
2026-05-05 12:50 51.46325 -0.45868 93 ft 19 kts 269°
2026-05-05 12:50 51.46324 -0.46075 92 ft 19 kts 270°
2026-05-05 12:51 51.46323 -0.46283 92 ft 19 kts 269°
2026-05-05 12:51 51.46322 -0.46493 94 ft 19 kts 270°
2026-05-05 12:51 51.46322 -0.46704 92 ft 19 kts 270°
2026-05-05 12:51 51.46324 -0.46913 92 ft 19 kts 270°
2026-05-05 12:52 51.46323 -0.47117 92 ft 14 kts 269°
2026-05-05 12:52 51.46310 -0.47253 94 ft 10 kts 225°
2026-05-05 12:52 51.46257 -0.47265 95 ft 7 kts 179°
2026-05-05 12:52 51.46222 -0.47302 95 ft 5 kts 242°
2026-05-05 12:53 51.46207 -0.47355 95 ft 5 kts 240°
2026-05-05 12:53 51.46195 -0.47387 95 ft 0 kts 239°